DW1345 Weather Reports


time (UTC)temp
C
wind
direction
speed
KPH
gust
KPH
rain 1hr
cm
rain 24hr
cm
rain mn
cm
humidity
%
barometer
mb
20260504180050 4 309 8.0 0.0 0.00 0.00 0.46 78 996.4
20260504174555 5 300 6.4 0.0 0.00 0.00 0.46 77 996.1
20260504173049 4 285 8.0 0.0 0.00 0.00 0.46 76 996.1
20260504171549 5 280 8.0 0.0 0.00 0.00 0.46 74 996.1
20260504081524 2 76 6.4 0.0 0.00 0.00 0.25 92 994.9
20260504050006 2 28 4.8 0.0 0.00 0.00 0.15 92 995.2
20260504044510 2 47 3.2 0.0 0.00 0.00 0.15 92 995.4
20260504043007 2 46 4.8 0.0 0.00 0.00 0.15 92 995.3
20260504041501 1 38 3.2 0.0 0.00 0.00 0.15 92 995.5
20260504040100 1 40 3.2 0.0 0.00 0.00 0.15 92 995.7
20260504034557 1 43 3.2 0.0 0.00 0.00 0.15 91 996.0
20260504033109 1 64 1.6 0.0 0.00 0.00 0.13 91 996.1
20260504031558 1 63 1.6 0.0 0.00 0.00 0.13 91 996.4
20260504030109 1 63 0.0 0.0 0.00 0.00 0.10 91 996.8
20260504024552 1 63 3.2 0.0 0.00 0.00 0.10 91 996.8
20260504023051 1 66 1.6 0.0 0.00 0.00 0.10 91 996.9
20260504021551 1 74 1.6 0.0 0.00 0.00 0.08 90 997.1
20260504020054 1 75 3.2 0.0 0.00 0.00 0.08 90 997.1
20260504014547 1 82 4.8 0.0 0.00 0.00 0.08 89 997.3
20260504013050 2 342 0.0 0.0 0.00 0.00 0.05 88 997.5
20260504011540 2 311 0.0 0.0 0.00 0.00 0.05 87 997.5
20260504010050 2 311 0.0 0.0 0.00 0.00 0.03 88 997.6
20260504004544 2 300 0.0 0.0 0.00 0.00 0.03 87 997.8
20260504003036 2 300 0.0 0.0 0.00 0.00 0.00 86 997.8
20260504001539 2 300 3.2 0.0 0.00 0.00 0.00 85 997.9
20260504000032 2 268 4.8 0.0 0.00 0.00 0.00 84 998.1
20260503234534 3 292 4.8 0.0 0.00 0.00 0.00 83 998.1
20260503233027 3 294 6.4 0.0 0.00 0.00 0.00 81 998.0
20260503231525 3 269 3.2 0.0 0.00 0.00 0.00 79 998.1
20260503230026 4 302 4.8 0.0 0.00 0.00 0.00 77 998.1
20260503224517 5 270 6.4 0.0 0.00 0.00 0.00 73 998.1
20260503223015 5 223 6.4 0.0 0.00 0.00 0.00 69 998.1
20260503221513 5 198 9.7 0.0 0.00 0.00 0.00 65 998.2
20260503220020 5 193 8.0 0.0 0.00 0.00 0.71 65 998.2
20260503214520 5 183 1.6 0.0 0.00 0.00 0.71 65 998.1
20260503213013 5 147 4.8 0.0 0.00 0.00 0.71 64 998.2
20260503211507 5 186 6.4 0.0 0.00 0.00 0.71 67 998.2
20260503210011 4 115 6.4 0.0 0.00 0.00 0.71 67 998.3
20260503204505 4 167 6.4 0.0 0.00 0.00 0.71 67 998.6
20260503203003 4 176 8.0 0.0 0.00 0.00 0.71 66 998.7
20260503201502 4 173 6.4 0.0 0.00 0.00 0.71 67 998.8
20260503200100 4 162 8.0 0.0 0.00 0.00 0.71 67 999.1
20260503194624 4 130 6.4 0.0 0.00 0.00 0.71 66 999.2
20260503193101 4 131 9.7 0.0 0.00 0.00 0.71 65 999.4
20260503191608 4 152 8.0 0.0 0.00 0.00 0.71 66 999.4
20260503190058 4 173 8.0 0.0 0.00 0.00 0.71 67 999.4
20260503184555 4 170 6.4 0.0 0.00 0.00 0.71 68 999.7
20260503183057 4 157 6.4 0.0 0.00 0.00 0.71 69 999.9
20260503181604 4 150 6.4 0.0 0.00 0.00 0.71 70 1000.0